Lobo

Go HERE for most recent data if this page is not up to date.

Jump to table bottom
Date/Time Temp deg F RH % 24 Hr Snow (in) Snow Depth (in) H2O (in)
01/26 16:00 21.4 35 -0.2 42.3 0.00
01/26 15:00 22.9 35 -0.2 42.2 0.00
01/26 14:00 24.2 34 -0.3 42.1 0.00
01/26 13:00 23.5 32 -0.3 42.3 0.00
01/26 12:00 23.3 30 -0.2 42.4 0.00
01/26 11:00 20.0 34 -0.1 42.5 0.00
01/26 10:00 17.8 34 -0.0 42.6 0.00
01/26 09:00 17.0 43 0.0 42.9 0.00
01/26 08:00 18.2 33 -0.0 42.6 0.00
01/26 07:00 16.1 31 -0.0 42.8 0.00
01/26 06:00 18.1 46 0.0 42.9 0.00
01/26 05:00 17.6 49 -0.0 42.9 0.00
01/26 04:00 15.8 36 -0.0 42.7 0.00
01/26 03:00 12.9 49 0.0 43.0 0.00
01/26 02:00 12.5 57 0.0 43.2 0.00
01/26 01:00 11.0 61 0.2 43.2 0.00
01/26 00:00 10.6 65 0.0 43.2 0.00
01/25 23:00 10.4 69 0.1 43.3 0.00
01/25 22:00 10.5 71 0.1 43.3 0.00
01/25 21:00 9.5 75 0.3 43.4 0.00
01/25 20:00 9.5 77 0.2 43.4 0.00
01/25 19:00 8.6 80 0.3 43.4 0.00
01/25 18:00 9.3 79 0.3 43.5 0.00
01/25 17:00 10.3 78 0.3 43.4 0.00
01/25 16:00 12.6 74 0.2 43.5 0.00
01/25 15:00 14.1 68 3.2 43.5 0.00
01/25 14:00 15.6 67 3.0 43.4 0.00
01/25 13:00 14.0 64 2.9 43.2 0.00
01/25 12:00 14.1 68 2.9 43.5 0.00
01/25 11:00 12.5 72 3.0 43.7 0.00
01/25 10:00 10.3 80 2.9 44.0 0.00
01/25 09:00 9.3 81 3.1 43.6 0.00
01/25 08:00 9.7 83 3.7 44.4 0.01
01/25 07:00 10.0 86 3.3 44.2 0.02
01/25 06:00 10.4 86 3.2 43.4 0.01
01/25 05:00 10.4 82 2.9 42.8 0.00
01/25 04:00 10.4 82 3.0 42.9 0.01
01/25 03:00 10.0 82 2.9 43.5 0.00
01/25 02:00 9.9 83 2.9 43.2 0.01
01/25 01:00 10.8 85 2.8 43.6 0.01
01/25 00:00 11.8 86 2.5 43.4 0.01
.